CAPE
0 183 71 64 0 97 187 80 102 159 161 224 270 244 245 290 138 0 20 70 9 55 236 507 937 1106 992 1014 1014 1263 1504 1530 1592 1327 1221 1009 912 741 919 1061 1426 1369 1279 1159 1140 1095 1099 1056 985
0 245 147 53 0 0 51 249 82 110 295 266 246 175 45 57 157 142 57 71 16 112 285 476 978 942 1062 1168 1177 1248 1570 1462 1421 1443 1520 1415 1304 1244 1166 1192 1469 1408 1402 1271 1241 1107 1056 1059 1169
0 518 667 207 35 47 150 287 164 213 197 129 240 151 84 58 257 176 114 46 15 81 211 676 912 1026 911 1203 1546 1151 1416 1575 1540 1227 1381 1483 1492 1480 1358 1514 1721 1595 1538 1390 1483 1386 1384 1170 1049
191 595 362 318 257 451 334 298 459 435 275 347 374 289 171 191 23 102 94 12 18 104 355 1073 816 1062 843 978 1401 1403 1395 1280 1010 926 1373 1445 1299 1387 1353 1559 1375 1465 1218 1589 1548 1346 1334 1421 1239
18 139 35 127 127 269 243 422 440 539 519 474 385 482 490 326 98 119 177 63 49 273 644 1133 1194 1137 1163 1209 1260 1589 1310 188 673 658 1388 1397 1459 1269 1200 1144 1455 1184 1142 1098 1160 1193 1554 1412 1351
22 186 68 76 105 263 457 395 631 605 398 300 398 555 576 216 86 88 96 89 172 440 883 1296 1378 1531 1427 1373 1161 1152 1375 168 222 281 169 527 668 551 641 947 1092 713 831 781 927 1148 1434 1374 1324
50 88 45 224 176 155 93 446 427 715 612 569 102 322 361 257 112 100 237 319 560 575 694 1224 1316 1523 1577 1480 1294 1216 1268 361 85 26 15 195 141 42 316 586 714 674 859 850 989 1106 1344 1403 1576
70 77 113 156 247 129 302 504 616 581 544 315 128 267 342 331 202 239 470 607 698 402 538 754 1140 1290 1308 1338 1497 1511 1494 1438 1087 755 215 108 7 27 0 292 427 424 755 795 1110 1081 1283 1482 1356
51 42 34 100 254 229 261 490 711 840 661 755 14 214 312 312 246 584 538 458 411 285 448 775 926 1046 1074 1130 1234 1357 1413 1427 1276 959 648 154 100 56 193 32 51 196 563 975 1184 1181 1357 1496 1440
33 6 14 19 88 278 370 444 605 418 615 507 308 246 344 481 397 691 559 460 339 107 221 644 982 1029 1137 1324 1297 1449 1305 1169 786 602 558 536 123 98 132 183 74 104 664 1168 1226 1226 1502 1423 1216
10 0 0 2 64 118 30 525 345 36 529 406 242 25 209 576 571 737 659 569 511 341 180 536 623 602 721 1040 1225 1247 1164 934 562 439 347 299 129 87 195 220 115 373 938 919 990 1382 1506 1090 1015
0 0 0 0 12 65 16 358 514 371 392 389 275 1 47 658 721 813 742 835 667 604 512 673 838 722 735 1105 1137 953 1160 996 763 626 347 296 220 292 212 318 278 378 628 863 846 906 671 742 658
0 0 0 0 2 0 34 85 66 420 545 670 342 23 4 601 723 756 681 964 980 871 837 841 886 837 923 1088 1027 876 734 860 661 654 601 307 241 249 202 199 300 334 495 629 618 572 650 552 562
0 0 0 0 0 0 0 61 94 635 671 614 384 111 130 634 776 821 852 774 1006 1018 1070 1074 977 941 1009 939 904 760 822 817 780 776 639 422 391 306 214 294 246 331 275 514 410 336 400 445 478
0 0 0 0 0 0 0 0 0 543 716 595 495 327 311 716 886 887 980 945 1062 1040 1151 1225 1173 994 1001 842 656 772 878 850 761 793 578 313 508 296 300 217 233 327 234 342 374 336 490 498 404
0 0 0 0 0 0 0 0 0 227 739 788 761 669 725 825 970 907 1062 1002 1106 1026 1089 1251 1176 922 907 813 749 805 930 792 745 670 680 281 437 419 487 158 152 243 305 232 74 41 413 528 493
0 0 0 0 0 0 0 0 0 47 139 413 959 828 845 913 945 791 934 1103 1163 1093 1110 1219 1111 931 792 836 810 524 622 536 664 823 701 431 571 492 347 199 184 368 633 362 260 37 86 289 459
0 0 0 0 0 0 0 0 0 7 163 190 272 466 762 619 580 636 938 1074 1149 1169 1097 1261 1135 1061 1000 903 647 487 477 452 695 695 592 694 536 729 479 445 482 686 645 536 284 13 167 330 449
0 0 0 0 0 0 0 0 0 0 0 162 154 406 515 572 453 590 827 949 1001 1100 1163 1176 1095 1094 1156 1092 710 511 452 346 539 555 649 671 374 458 410 465 731 695 635 586 317 288 493 534 521
0 0 0 0 0 0 0 0 0 0 0 0 122 279 538 576 490 612 825 1020 995 1069 1062 1065 1045 1110 1212 1073 851 442 229 237 339 407 497 722 438 359 233 99 118 661 851 770 475 544 344 282 301
0 0 0 0 0 0 0 0 0 0 0 0 34 129 417 616 437 518 764 931 1008 1062 1058 1063 1066 1116 1242 1122 892 682 349 95 138 311 341 323 235 171 384 131 40 296 603 484 379 620 535 270 248
0 0 0 0 0 0 0 0 0 0 0 0 0 13 174 593 632 606 611 824 995 1066 1088 1004 1116 1198 1162 1121 1012 777 441 238 29 90 212 215 64 0 0 131 115 289 424 369 449 622 619 351 212
0 0 0 0 0 0 0 0 0 0 0 0 0 0 0 346 658 688 625 700 852 1121 1182 1164 1155 1173 1245 1085 999 818 682 394 371 79 45 62 84 61 1 59 302 381 359 595 340 517 514 429 189
0 0 0 0 0 0 0 0 0 0 0 0 4 29 39 188 629 700 661 761 998 1150 1332 1227 1153 1145 1210 996 1023 959 939 648 479 361 160 72 14 0 3 48 349 447 538 299 356 288 672 534 553
0 0 0 0 0 0 0 0 0 0 0 0 37 80 109 364 604 758 724 916 1075 1194 1373 1300 1162 1194 1143 1069 1252 1061 894 567 495 403 139 40 12 2 14 113 359 228 505 252 166 339 605 830 745
0 0 0 0 0 0 0 0 0 0 0 49 224 265 284 590 686 804 792 1027 1221 1290 1281 1658 1393 1351 1384 1456 1174 1059 806 690 445 397 177 22 56 0 1 218 397 333 123 519 320 240 664 597 572
0 0 0 0 0 0 0 0 0 11 157 271 288 337 531 486 651 960 896 665 1104 1384 1515 1425 1758 1628 1694 1614 1487 1193 1091 880 782 499 331 68 177 80 154 378 477 476 342 400 100 61 730 489 411
0 0 0 0 0 0 0 0 0 100 176 225 377 344 489 665 555 1118 210 161 390 670 1482 1757 1807 1735 1801 1817 1592 1425 1314 1096 762 449 426 146 314 225 460 477 673 681 564 913 826 696 557 197 94
0 0 0 0 0 0 0 16 245 312 258 146 185 407 638 683 766 460 27 25 23 295 1122 2214 2057 1981 2056 1983 1785 1659 1353 1022 580 249 83 307 196 334 376 528 726 820 776 658 878 643 513 277 138
0 0 0 0 0 0 0 0 207 173 232 89 56 46 695 889 893 599 231 1 8 0 423 1851 2473 2190 2222 2238 2017 1830 1426 1155 719 299 82 132 188 370 390 433 648 629 720 703 890 1100 981 970 781
CIN
0 -306 -421 -247 0 -83 -18 -60 -60 -48 -60 -48 -40 -71 -71 -76 -81 0 -280 -182 -208 -144 -43 -3 0 0 0 0 -9 -2 0 -4 -3 -11 -13 -26 -22 -31 -27 -22 -8 -11 -20 -26 -28 -33 -41 -47 -58
0 -288 -348 -301 0 0 -37 -13 -38 -64 -81 -65 -72 -88 -98 -144 -181 -252 -208 -158 -217 -144 -68 -28 -1 -1 0 0 0 -6 0 -4 -16 -16 -3 -8 -10 -12 -16 -11 -1 -6 -13 -26 -27 -34 -35 -43 -43
0 -229 -136 -76 -90 -67 -20 -25 -66 -32 -60 -54 -81 -89 -119 -152 -144 -192 -243 -206 -222 -171 -123 -25 -1 -1 -1 0 0 -6 -1 0 -3 -23 -8 -2 -1 -1 -4 0 0 0 -2 -9 -5 -13 -13 -28 -42
-207 -153 -130 -35 -17 -18 -28 -24 -23 -26 -35 -47 -74 -88 -103 -88 -181 -235 -224 -216 -217 -195 -91 -7 -22 -1 -3 -3 0 0 0 -4 -12 -19 -13 0 -1 0 0 0 0 0 -4 0 -1 -7 -11 -8 -30
-296 -132 -126 -50 -13 -31 -36 -26 -41 -47 -49 -61 -68 -97 -102 -73 -186 -222 -196 -242 -189 -128 -51 -9 -5 -6 -2 -1 -1 0 0 -67 -23 -12 -4 -1 0 0 0 0 0 0 -1 -3 -9 -7 -1 -5 -11
-98 -77 -56 -38 -39 -12 -15 -21 -28 -49 -75 -75 -78 -104 -52 -109 -171 -193 -202 -193 -157 -116 -36 -5 -1 0 0 0 -5 -3 0 -69 -37 -39 -37 -17 -16 -18 -16 -5 0 -10 -4 -13 -15 -6 -1 -4 -7
-59 -106 -61 -24 -14 -27 -48 -16 -28 -40 -49 -40 -151 -83 -90 -120 -136 -179 -156 -152 -105 -107 -77 -15 -3 0 0 0 -2 -2 -1 -31 -67 -73 -58 -66 -42 -30 -17 -13 -10 -6 -5 -5 -5 -3 -1 -2 0
-232 -61 -75 -42 -7 -30 -9 -9 -25 -52 -79 -168 -149 -69 -84 -58 -85 -88 -126 -130 -117 -136 -111 -82 -25 -6 -7 -2 0 0 0 0 -1 -5 -23 -19 -33 -45 0 -23 -22 -29 -10 -9 0 -1 -3 -1 -8
-134 -32 -21 -76 -4 -12 -27 -16 -51 -92 -95 -152 -81 -111 -68 -35 -41 -65 -97 -106 -108 -129 -122 -98 -65 -43 -32 -21 -3 0 0 0 0 -1 -7 -13 -27 -48 -22 -90 -99 -64 -29 -4 0 0 -1 0 -15
-35 -39 -20 -25 -64 -9 -6 -26 -38 -66 -102 -117 -129 -92 -87 -48 -38 -76 -104 -116 -126 -183 -169 -117 -68 -65 -41 -13 -4 -2 -2 -2 -10 -14 -11 -9 -50 -67 -49 -48 -66 -85 -27 -1 0 0 0 -2 -25
-35 0 0 -4 -32 -34 -14 -16 -34 -16 -93 -119 -83 -35 -118 -35 -60 -59 -97 -158 -150 -150 -192 -143 -101 -106 -83 -51 -13 -6 -4 -5 -37 -47 -46 -31 -59 -78 -96 -46 -56 -37 -6 -2 -5 -1 -1 -23 -36
0 0 0 0 -43 -37 -16 -15 -21 -47 -29 -57 -101 -18 -131 -67 -68 -61 -81 -118 -110 -123 -119 -119 -114 -121 -104 -60 -31 -35 -15 -13 -33 -49 -68 -50 -51 -49 -49 -45 -49 -40 -11 -6 -10 -14 -27 -33 -43
0 0 0 0 -21 0 -46 -28 -26 -37 -64 -94 -160 -177 -225 -134 -94 -75 -83 -88 -99 -109 -98 -111 -112 -120 -86 -70 -45 -46 -56 -41 -53 -43 -59 -54 -53 -58 -71 -68 -45 -41 -18 -18 -29 -35 -41 -42 -39
0 0 0 0 0 0 0 -48 -42 -53 -115 -123 -165 -238 -283 -174 -150 -125 -100 -107 -73 -95 -112 -117 -98 -87 -93 -99 -57 -67 -58 -50 -45 -39 -54 -57 -41 -50 -65 -48 -49 -45 -53 -31 -54 -64 -64 -53 -51
0 0 0 0 0 0 0 0 0 -86 -117 -104 -134 -183 -231 -203 -173 -167 -183 -133 -115 -112 -114 -100 -95 -97 -91 -86 -74 -63 -46 -46 -48 -40 -56 -58 -35 -39 -63 -66 -68 -41 -50 -58 -49 -60 -64 -53 -68
0 0 0 0 0 0 0 0 0 -117 -95 -114 -133 -142 -145 -163 -142 -162 -166 -173 -156 -131 -135 -107 -79 -88 -90 -83 -73 -65 -58 -49 -53 -41 -41 -56 -37 -31 -31 -73 -59 -43 -49 -79 -85 -96 -55 -43 -66
0 0 0 0 0 0 0 0 0 -69 -95 -109 -116 -133 -126 -129 -154 -195 -182 -199 -184 -158 -148 -122 -106 -95 -93 -64 -70 -71 -55 -59 -54 -42 -35 -42 -34 -35 -34 -54 -50 -42 -32 -53 -62 -54 -80 -47 -45
0 0 0 0 0 0 0 0 0 -22 -66 -70 -103 -143 -112 -161 -137 -193 -195 -184 -192 -174 -155 -109 -127 -101 -69 -60 -60 -66 -52 -56 -42 -46 -23 -29 -33 -25 -28 -39 -32 -31 -51 -43 -61 -65 -71 -61 -35
0 0 0 0 0 0 0 0 0 0 -1 -68 -102 -125 -128 -157 -167 -192 -206 -193 -196 -179 -150 -133 -130 -135 -72 -35 -47 -52 -57 -68 -45 -35 -27 -33 -65 -49 -36 -31 -29 -36 -42 -51 -54 -45 -35 -52 -66
0 0 0 0 0 0 0 0 0 0 0 0 -82 -125 -113 -134 -206 -225 -232 -215 -214 -198 -192 -165 -153 -131 -78 -54 -73 -88 -99 -84 -60 -44 -44 -40 -51 -51 -70 -93 -86 -34 -21 -30 -51 -32 -47 -62 -85
0 0 0 0 0 0 0 0 0 0 0 0 -102 -104 -114 -136 -180 -248 -262 -232 -247 -215 -212 -184 -168 -132 -98 -66 -75 -92 -102 -121 -118 -85 -77 -78 -67 -66 -50 -68 -122 -68 -46 -49 -42 -30 -38 -55 -77
0 0 0 0 0 0 0 0 0 0 0 0 -2 -88 -123 -146 -191 -225 -271 -255 -236 -229 -214 -203 -165 -129 -113 -90 -83 -86 -86 -100 -146 -136 -97 -78 -110 0 0 -66 -70 -62 -59 -65 -51 -41 -44 -51 -47
0 0 0 0 0 0 0 0 0 0 0 0 0 0 0 -140 -172 -199 -221 -243 -239 -226 -213 -201 -160 -135 -118 -105 -99 -94 -75 -83 -74 -121 -128 -97 -87 -99 -117 -65 -43 -59 -55 -48 -70 -53 -63 -68 -57
0 0 0 0 0 0 0 0 0 0 0 0 -32 -45 -60 -119 -171 -201 -226 -269 -230 -229 -200 -200 -152 -148 -133 -123 -114 -110 -83 -63 -65 -72 -100 -114 -159 -171 -163 -98 -61 -55 -43 -64 -67 -71 -52 -47 -51
0 0 0 0 0 0 0 0 0 0 0 0 -37 -39 -56 -100 -170 -203 -212 -248 -216 -213 -207 -189 -182 -152 -148 -135 -111 -102 -90 -78 -65 -65 -79 -101 -133 -127 -156 -96 -70 -85 -47 -61 -82 -58 -47 -31 -34
0 0 0 0 0 0 0 0 0 0 0 -132 -150 -128 -144 -94 -128 -124 -203 -256 -226 -231 -219 -175 -194 -155 -142 -125 -118 -105 -89 -85 -84 -85 -98 -137 -139 -6 -16 -74 -56 -57 -66 -49 -72 -83 -34 -27 -28
0 0 0 0 0 0 0 0 0 -49 -95 -113 -167 -181 -186 -218 -153 -180 -141 -115 -144 -145 -207 -194 -178 -164 -129 -109 -99 -109 -83 -84 -64 -83 -81 -105 -104 -94 -62 -55 -45 -42 -41 -34 -103 -111 -32 -53 -60
0 0 0 0 0 0 -14 0 0 -63 -106 -141 -136 -218 -208 -245 -217 -171 -130 -197 -372 -281 -130 -164 -179 -148 -126 -112 -99 -100 -83 -80 -85 -100 -70 -97 -70 -81 -50 -41 -34 -35 -41 -35 -43 -51 -54 -74 -100
0 0 0 0 0 0 0 -33 -174 -131 -150 -101 -116 -225 -221 -205 -166 -161 -439 -371 -339 -279 -181 -52 -165 -138 -109 -100 -94 -104 -109 -99 -114 -135 -155 -96 -104 -81 -60 -60 -38 -25 -23 -48 -45 -55 -61 -72 -88
0 0 0 0 0 0 0 0 -206 -186 -152 -122 -74 -111 -198 -188 -198 -225 -398 -27 -234 -6 -204 -131 -92 -135 -114 -99 -98 -108 -124 -114 -123 -182 -198 -150 -125 -99 -83 -68 -65 -25 -24 -39 -45 -42 -43 -43 -41
Wind_Speed
16 14 8 25 13 10 10 9 20 23 23 23 22 18 18 16 15 17 28 27 29 29 29 30 30 31 30 29 24 23 16 17 16 15 14 15 14 13 14 13 13 14 15 13 13 14 14 14 13
20 18 22 24 25 11 14 10 14 23 25 24 24 22 22 18 18 26 27 28 29 28 29 29 28 28 28 27 26 24 19 15 19 13 14 13 13 10 11 12 14 15 14 14 15 14 14 14 13
9 13 15 21 24 25 21 19 22 22 22 22 21 23 23 22 25 27 27 30 28 28 28 28 27 26 25 25 25 25 24 21 22 18 17 16 11 13 12 10 13 15 15 15 14 14 13 13 14
19 19 19 20 21 19 18 19 19 20 23 21 21 22 21 21 25 25 30 29 28 27 27 26 27 27 28 27 25 23 22 23 22 21 20 18 14 11 9 7 12 15 15 14 13 12 13 12 12
18 18 23 20 22 19 15 20 18 19 21 23 21 21 20 22 23 28 27 27 27 25 24 25 25 26 25 24 23 22 21 21 19 17 18 16 12 3 6 9 14 15 15 13 12 12 12 11 12
17 18 17 21 21 19 18 19 19 19 19 20 19 20 16 19 25 26 25 25 26 24 23 22 23 23 22 22 21 21 20 18 16 15 14 10 10 1 9 12 14 17 15 15 13 12 11 11 14
16 17 19 18 19 21 19 17 17 17 19 17 20 17 16 21 22 23 23 24 25 23 22 20 20 20 19 19 19 19 18 17 16 15 13 12 20 7 17 17 11 16 20 19 15 14 14 15 16
15 16 18 19 18 20 20 18 20 19 18 19 18 14 16 14 24 19 19 21 23 22 21 19 19 19 18 17 18 18 18 18 17 16 17 25 26 24 24 22 23 20 21 21 18 17 17 18 18
13 18 17 19 19 18 18 19 19 19 17 14 20 16 19 25 24 20 18 19 20 19 20 18 18 18 18 17 17 16 17 18 17 17 19 22 22 25 24 28 25 22 21 20 19 18 19 19 20
16 17 17 20 19 18 17 18 17 18 16 19 18 17 19 23 25 22 21 21 21 20 20 18 17 17 17 15 16 14 15 16 16 16 19 20 21 23 24 27 24 22 22 20 20 20 21 21 20
14 16 17 21 22 19 20 18 16 18 15 15 16 17 17 23 24 22 21 21 22 22 22 18 16 15 15 15 16 14 13 15 17 17 20 22 21 19 24 25 24 23 23 22 22 21 22 21 21
15 15 15 19 20 21 20 19 17 17 19 18 18 19 18 21 21 21 19 18 17 18 20 18 17 15 17 13 16 14 13 14 17 18 18 19 19 19 23 23 23 23 24 22 22 21 21 22 20
17 15 14 15 18 20 20 18 16 16 18 21 20 20 21 20 19 18 10 18 18 18 18 19 17 17 15 15 16 14 11 15 16 19 20 16 18 20 21 20 21 22 23 23 22 21 21 21 21
16 15 15 13 16 16 19 17 15 14 18 18 19 19 21 21 21 18 15 21 19 15 17 18 19 17 15 14 15 13 9 18 18 17 21 17 17 20 20 20 22 22 21 23 22 22 21 21 21
18 20 20 10 14 15 17 13 10 15 18 17 17 18 19 20 20 19 20 20 19 16 16 18 18 17 16 14 15 13 12 17 20 20 21 19 18 18 19 17 21 22 23 24 23 22 21 21 20
20 20 17 11 13 12 14 3 10 15 16 15 14 15 16 17 19 18 19 18 18 18 18 16 17 17 17 15 16 11 14 15 17 20 20 21 19 19 18 16 21 24 24 22 23 23 22 22 21
21 10 12 13 13 12 12 4 12 13 11 12 14 15 16 16 15 17 18 18 18 19 18 18 16 15 18 16 14 10 11 10 18 25 22 18 17 13 19 20 18 20 22 24 21 22 23 23 22
16 16 18 17 10 12 7 5 7 9 10 12 13 14 17 16 16 18 18 17 19 18 17 18 16 14 16 12 8 7 9 14 14 23 25 12 12 8 17 16 22 15 22 23 17 24 23 23 23
14 22 22 22 14 7 5 8 10 4 6 11 16 17 15 15 17 17 19 19 20 19 17 18 15 14 14 14 11 12 12 11 7 12 25 7 9 4 3 24 24 21 21 24 24 24 25 22 20
23 23 15 15 15 14 23 22 19 13 5 16 21 19 16 15 15 16 19 19 19 19 18 18 17 15 15 16 14 9 14 13 8 2 2 0 3 7 3 27 28 26 25 26 26 25 22 21 21
22 23 20 21 22 20 28 22 15 20 10 18 19 18 16 18 17 16 18 20 19 19 18 17 17 15 15 16 12 6 5 4 3 2 4 2 1 3 14 23 29 27 26 27 24 25 23 18 23
25 20 24 25 25 26 20 25 26 16 13 17 15 13 14 16 16 15 15 18 19 18 19 18 17 16 15 16 14 10 12 9 9 6 5 7 2 14 25 18 26 28 26 25 23 24 22 17 22
20 22 23 24 25 26 14 22 21 15 12 12 12 10 12 14 17 19 17 18 18 17 18 18 17 16 14 16 15 13 12 8 5 4 6 3 5 20 20 28 29 28 27 22 21 17 23 20 19
21 20 21 21 19 21 19 16 19 17 14 10 9 12 11 12 19 19 17 14 15 15 15 16 17 17 15 15 14 14 11 9 5 4 3 6 5 31 30 32 29 28 26 11 14 25 25 26 26
19 22 20 18 21 18 26 16 18 25 13 8 11 16 12 12 14 17 16 14 15 16 15 16 17 17 15 15 14 13 10 8 7 5 5 4 23 33 32 33 31 31 31 25 27 29 27 22 22
17 16 14 20 24 29 19 18 18 17 16 14 18 21 22 8 8 11 14 7 15 15 16 15 16 14 15 13 12 11 10 8 6 6 7 11 33 31 32 33 32 30 30 28 30 29 21 8 8
18 22 18 17 18 20 15 16 14 16 15 15 21 23 25 19 7 6 7 12 19 22 15 14 14 14 16 14 11 11 9 9 8 10 11 11 30 32 34 33 32 32 31 30 30 30 26 13 9
24 21 21 20 20 18 17 14 11 12 14 15 16 20 23 23 16 9 9 12 11 20 28 18 13 14 15 14 12 10 10 9 9 10 10 13 25 31 31 33 32 32 32 31 31 31 23 22 14
24 23 22 17 15 17 17 15 11 9 10 12 14 18 20 20 18 9 8 12 16 26 28 29 15 13 14 14 12 11 9 9 9 11 15 27 24 30 33 29 33 34 33 32 32 28 23 28 19
18 22 23 20 23 19 19 16 6 9 10 14 19 19 19 20 18 18 8 9 9 10 32 28 21 16 15 14 13 12 9 9 11 12 16 6 28 27 34 34 34 35 36 35 24 6 31 23 11
Wind_Direction
124 123 122 86 344 286 209 204 110 78 45 53 73 83 75 67 100 93 110 111 113 117 118 122 120 119 114 115 102 98 86 87 88 91 92 93 92 89 86 80 74 71 68 56 45 43 36 27 19
103 122 17 48 64 44 181 170 93 67 72 61 53 54 37 69 71 97 104 112 114 114 119 120 119 117 115 113 110 105 95 86 92 86 94 94 95 89 83 80 82 81 73 67 64 51 38 30 21
166 149 358 42 77 79 77 93 42 71 57 60 57 50 47 65 86 105 109 114 114 116 119 119 118 116 115 114 112 110 107 101 104 95 97 98 95 96 91 78 85 89 89 85 77 57 41 43 30
49 24 14 17 48 72 82 65 53 48 26 48 60 43 50 88 104 106 113 115 115 116 117 117 119 121 127 126 121 114 111 113 112 108 108 105 100 100 89 72 87 101 100 86 78 50 55 52 76
22 47 20 41 13 19 4 42 46 36 31 34 53 72 66 92 90 111 112 115 117 116 116 116 120 124 126 125 125 120 118 118 108 103 105 104 98 77 81 88 107 108 107 100 87 76 73 70 110
42 18 4 6 16 17 29 38 39 39 56 53 44 35 66 93 101 112 113 116 119 117 116 114 118 121 124 126 123 126 123 120 109 105 106 88 92 43 98 104 115 129 121 122 106 96 73 108 151
29 31 17 36 16 14 12 39 40 59 58 40 18 40 69 115 110 108 111 111 119 117 116 113 114 118 118 122 122 124 123 119 119 118 110 113 151 98 135 133 101 130 167 168 147 150 144 165 172
22 20 2 4 24 24 39 49 58 58 47 80 62 47 94 102 120 106 105 107 114 118 120 118 118 120 116 115 124 125 126 125 127 124 130 184 176 161 165 157 168 159 186 194 175 173 178 184 183
356 11 15 13 11 33 64 39 37 32 60 39 6 78 116 122 118 110 103 111 116 118 123 121 125 125 126 121 125 123 127 131 131 135 152 157 156 173 179 182 174 178 193 193 183 179 181 183 193
5 12 21 20 19 23 56 54 59 54 80 43 41 76 92 119 128 122 118 124 130 128 133 126 128 128 130 125 130 119 120 123 125 131 146 148 157 171 177 177 174 184 193 187 181 180 185 184 189
4 15 27 25 40 53 23 53 67 51 49 54 71 83 96 126 140 134 133 137 133 136 137 131 131 132 134 132 135 124 116 123 131 137 152 164 151 150 177 186 188 192 199 185 187 185 185 184 194
9 32 33 57 61 53 20 53 48 65 48 71 102 106 99 129 140 148 139 129 134 129 139 137 139 135 140 128 139 133 125 130 138 144 144 147 148 156 167 174 181 189 189 179 190 184 185 194 195
4 6 48 75 65 53 52 46 55 70 67 71 89 100 104 118 139 150 129 137 141 136 141 147 143 141 134 133 144 138 128 138 140 156 156 139 148 160 168 165 164 178 181 187 182 185 191 193 201
323 303 359 90 65 80 53 59 80 78 87 82 93 104 117 122 131 133 133 154 151 138 139 148 152 147 141 141 147 144 130 154 153 149 164 146 146 156 153 151 169 176 173 186 184 187 190 194 193
295 307 267 102 57 81 74 83 102 104 110 98 110 114 124 131 131 137 144 149 153 150 142 150 150 149 150 149 151 148 143 151 164 161 167 155 148 149 150 142 164 181 193 190 189 194 192 198 191
298 342 3 99 121 132 80 150 126 107 112 114 117 125 130 140 153 148 147 145 146 148 152 148 148 154 153 151 152 142 148 152 155 163 158 161 154 157 153 142 167 196 194 189 196 199 206 196 195
351 100 211 230 154 111 89 171 79 123 124 127 148 147 145 145 147 149 151 145 144 147 150 149 148 149 156 154 146 134 138 142 170 179 168 156 150 136 154 159 152 222 235 197 191 196 199 200 195
276 20 289 254 137 148 100 150 104 116 148 171 163 155 156 153 152 152 149 148 147 147 148 150 144 140 151 139 117 104 120 144 207 169 179 138 137 118 153 151 241 283 246 218 174 207 215 206 205
227 323 290 271 219 66 140 207 233 75 170 184 172 166 154 155 151 148 149 148 147 148 146 149 147 143 138 140 132 136 139 124 306 148 182 133 133 78 86 250 245 258 256 214 213 219 208 221 233
318 326 249 257 235 26 279 260 248 237 250 186 177 171 163 150 138 140 146 147 151 151 149 150 149 143 142 145 138 115 143 140 127 60 2 257 337 320 352 206 228 237 247 233 224 219 233 236 226
319 303 251 267 326 337 322 261 239 265 230 153 161 169 164 162 158 146 149 152 151 153 151 149 151 146 140 142 127 18 82 352 318 121 128 127 254 338 286 254 234 239 243 230 234 227 234 257 230
294 246 289 302 314 314 4 288 278 253 72 116 143 149 164 169 164 157 149 154 157 156 153 149 147 143 141 138 138 122 131 128 144 156 157 162 238 286 273 284 253 238 239 234 243 240 250 267 241
252 274 306 305 309 321 303 351 3 1 81 120 106 120 156 165 164 163 162 161 156 150 153 150 144 141 138 143 144 138 134 122 62 111 162 212 271 274 272 238 234 233 228 233 256 270 244 257 259
281 312 314 327 348 352 8 9 355 2 24 67 79 93 71 136 158 160 155 148 148 145 144 145 146 145 141 143 144 147 142 130 87 72 129 168 203 236 227 213 231 229 239 139 238 245 237 221 216
316 319 329 341 345 353 343 11 8 287 346 33 63 15 56 110 131 140 144 145 143 144 144 144 146 150 146 147 150 150 144 133 134 122 117 135 199 215 215 210 212 214 210 181 192 204 222 213 244
1 358 355 333 330 318 346 356 0 356 3 32 14 6 357 67 124 147 156 101 139 139 147 144 147 146 149 145 147 141 138 133 123 128 126 138 201 218 217 211 206 222 217 191 202 204 243 297 291
355 345 354 346 346 344 2 352 341 351 5 23 9 9 8 10 48 76 61 63 258 184 154 154 155 150 154 154 140 137 129 130 125 141 139 141 225 216 202 199 194 205 209 212 204 190 203 266 277
329 343 338 337 339 337 340 352 343 352 349 356 5 13 15 15 21 59 58 50 359 280 241 181 162 157 158 157 151 139 131 125 119 127 137 148 239 224 218 215 191 196 209 214 198 205 238 237 272
328 340 345 353 350 330 324 328 345 3 0 360 355 13 16 17 13 4 346 12 22 272 262 208 170 162 162 160 158 147 129 126 118 129 133 181 232 223 218 234 215 203 203 191 190 227 241 214 261
349 343 345 337 327 337 326 323 346 342 342 340 325 333 354 6 4 353 354 1 72 115 221 201 181 167 166 163 158 156 135 128 131 138 148 246 228 241 232 226 217 207 211 198 172 162 207 241 286